This is the latest recevied weather packets stored in our database for station/object YBBN. If no packets are shown the sender has not sent any weather packets the latest 10 day(s).
| Time | Temp. | Humidity | Pressure | Rain* | Wind** | Luminosity | Snow |
|---|---|---|---|---|---|---|---|
| 1787565231 | 18.89° C | 82% | 1025 hPa | - | - | - | - |
| 1787564629 | 18.89° C | 82% | 1025 hPa | - | - | - | - |
| 1787564028 | 18.89° C | 88% | 1024 hPa | - | - | - | - |
| 1787563426 | 18.89° C | 88% | 1024 hPa | - | - | - | - |
| 1787562826 | 18.89° C | 88% | 1024 hPa | - | - | - | - |
| 1787562227 | 18.89° C | 88% | 1010 hPa | - | - | - | - |
| 1787561630 | 18.89° C | 88% | 1010 hPa | - | - | - | - |
| 1787561027 | 18.89° C | 88% | 1010 hPa | - | - | - | - |
| 1787560426 | 18.89° C | 88% | 1010 hPa | - | - | - | - |
| 1787559826 | 18.89° C | 88% | 1010 hPa | - | - | - | - |
| 1787559230 | 18.89° C | 88% | 1010 hPa | - | - | - | - |
| 1787558628 | 18.89° C | 82% | 1024 hPa | - | - | - | - |
| 1787558035 | 18.89° C | 82% | 1024 hPa | - | - | - | - |
| 1787557428 | 18.89° C | 82% | 1024 hPa | - | - | - | - |
| 1787556831 | 20° C | 82% | 1024 hPa | - | - | - | - |
| 1787556228 | 20° C | 82% | 1024 hPa | - | - | - | - |
| 1787555628 | 20° C | 82% | 1024 hPa | - | - | - | - |
| 1787555025 | 20.56° C | 73% | 1011 hPa | - | - | - | - |
| 1787554427 | 20.56° C | 73% | 1011 hPa | - | - | - | - |
| 1787553829 | 20.56° C | 73% | 1011 hPa | - | - | - | - |
| 1787553227 | 20.56° C | 77% | 1023 hPa | - | - | - | - |
| 1787552628 | 20.56° C | 77% | 1023 hPa | - | - | - | - |
| 1787552028 | 20.56° C | 77% | 1023 hPa | - | - | - | - |
| 1787551428 | 20.56° C | 73% | 1023 hPa | - | - | - | - |
| 1787550830 | 20.56° C | 73% | 1023 hPa | - | - | - | - |
* Rain since midnight (hover to see other rain measurements)
** Current wind speed in m/s (hover to see current wind gust speed)